Details From LIRN - Naples Capodichino
To LIBD - Bari Palese Macchie
Flight Number -
Tags Routegen Generated
Created
Modified
Stats Distance 113 nm / 209 km
Max Altitude 0 ft / 0 m
Waypoints 2
Social Downloads 8
Likes 0
Share VATSIM

Download

Looking for another format? Having issues loading an existing format? Contact us
Advertisement - Login to hide

Notes

Generated

Route

LIRN LIBD

ID Type Via Altitude (ft/m) Position (lat/lon) Dist (leg/tot) Name
O LIRN APT - 0 / 0 40.87979 / 14.27754 - / 0 nm
O LIBD APT - 0 / 0 41.13463 / 16.74687 112 / 112 nm

Altitude Profile

Advertisement - Login to hide

LIRN

Details ICAO LIRN (NAP)
Name Naples Capodichino
Region Italy
Timezone Europe/Rome (UTC+2.0)
Stats Elevation 293 ft / 89 m (AMSL)
Location 40.886000° 14.290800°
Runways 1
Magnetic Variation 3.495° E

METAR

LIRN 132150Z 36001KT CAVOK 17/14 Q1023 NOSIG

Decode

TAF

TAF LIRN 131700Z 1318/1418 VRB04KT 9999 FEW030 BECMG 1408/1410 20010KT

Decode

Departure Runways

ID Width Length Bearing (true/mag) Surface Threshold Overrun Markings Lighting
06 148 ft / 45 m 8,608 ft / 2,624 m 58.05° / 54.56° ASPHALT 1,299 ft / 396 m 0 ft / 0 m PREC-APP CENTERLINE EDGE THRESHOLD MALSF
24 148 ft / 45 m 8,608 ft / 2,624 m 238.07° / 234.58° ASPHALT 604 ft / 184 m 0 ft / 0 m PREC-APP CENTERLINE EDGE THRESHOLD MALSF

LIBD

Details ICAO LIBD (BRI)
Name Bari Karol Wojtyla
Region Italy
Timezone Europe/Rome (UTC+2.0)
Stats Elevation 174 ft / 53 m (AMSL)
Location 41.137900° 16.758300°
Runways 1
Magnetic Variation 3.925° E

METAR

LIBD 132150Z 24004KT CAVOK 15/14 Q1023

Decode

TAF

TAF LIBD 131700Z 1318/1418 VRB05KT CAVOK BECMG 1406/1408 06010KT BECMG 1416/1418 VRB05KT

Decode

Destination Runways

ID Width Length Bearing (true/mag) Surface Threshold Overrun Markings Lighting
07 148 ft / 45 m 9,260 ft / 2,823 m 69.39° / 65.46° ASPHALT 1,220 ft / 372 m 0 ft / 0 m PREC-APP CENTERLINE EDGE THRESHOLD ALSF-II REIL-OMNI
25 148 ft / 45 m 9,260 ft / 2,823 m 249.41° / 245.48° ASPHALT 0 ft / 0 m 0 ft / 0 m PREC-APP CENTERLINE EDGE THRESHOLD SALS REIL-OMNI

Approach Navaids

Runway Type Ident Frequency Range Bearing (true/mag) Slope Elevation
07 LOC-ILS BAP 111.35 MHz 18 nm / 33 km 69.39° / 65.47 ° - 175 ft / 53 m (AMSL)
07 GS BAP 111.35 MHz 10 nm / 19 km 69.39° / 65.47 ° 3.32° 175 ft / 53 m (AMSL)
07 DME BAP 111.35 MHz 18 nm / 33 km - - 183 ft / 56 m (AMSL)
07 OM OM - - 69.25° / 65.33 ° - 177 ft / 54 m (AMSL)

Popular Alternatives